Location: Oshawa
(43.9000°N, 78.8670°W)
Time: 07:28:32
(UTC-04:00)

CARTOSAT-1 - Visible Passes

Search period start: 31 July 2014 00:00
Search period end: 10 August 2014 00:00
Orbit: 617 x 619 km, 97.8° (Epoch: 31 July)

Date Brightness Start Highest point End Pass type
(mag) Time Alt. Az. Time Alt. Az. Time Alt. Az.
31 Jul 5.8 00:24:40 15° W 00:25:06 15° W 00:27:40 10° NW visible
31 Jul 3.5 23:04:32 55° SSE 23:05:26 78° ENE 23:09:45 10° N visible
01 Aug 5.7 21:44:43 10° E 21:46:40 13° ENE 21:48:36 10° NE visible
01 Aug 3.6 23:21:32 59° SSW 23:22:10 70° WSW 23:26:30 10° NNW visible
02 Aug 5.3 22:01:24 15° E 22:03:13 18° ENE 22:06:11 10° NNE visible
02 Aug 4.2 23:38:32 44° WSW 23:38:58 45° W 23:43:07 10° NNW visible
03 Aug 4.8 22:18:25 22° E 22:19:49 26° ENE 22:23:24 10° N visible
03 Aug 4.9 23:55:33 30° WSW 23:55:47 30° W 23:59:36 10° NW visible
04 Aug 4.3 22:35:25 33° ESE 22:36:27 38° ENE 22:40:27 10° N visible
05 Aug 5.5 00:12:33 20° W 00:12:39 20° W 00:15:54 10° NW visible
05 Aug 3.7 22:52:26 50° ESE 22:53:07 57° ENE 22:57:22 10° N visible
06 Aug 6.0 00:29:34 14° W 00:29:34 14° W 00:31:47 10° WNW visible
06 Aug 3.4 23:09:26 73° SSE 23:09:50 87° ENE 23:14:11 10° NNW visible
07 Aug 5.6 21:49:19 12° E 21:51:01 14° ENE 21:53:18 10° NNE visible
07 Aug 3.7 23:26:27 61° WSW 23:26:36 62° W 23:30:53 10° NNW visible
08 Aug 5.2 22:06:19 18° E 22:07:35 20° ENE 22:10:45 10° NNE visible
08 Aug 4.5 23:43:28 40° W 23:43:28 40° W 23:47:29 10° NNW visible
09 Aug 4.6 22:23:20 27° E 22:24:11 29° ENE 22:27:55 10° N visible
